Regional Weather Roundup
Issued by NWS Wakefield, VA

Home | Current Version | Previous Version | Graphics & Text | Print | Product List | Glossary On
Versions: 1 2 3 4 5 6 7 8 9 10 11 12 13 14 15 16 17 18 19 20 21 22 23 24 25 26 27 28 29 30 31 32 33 34 35 36 37 38 39 40 41 42 43 44 45 46 47 48 49 50
000
ASUS41 KAKQ 311314
RWRAKQ

REGIONAL WEATHER ROUNDUP
NATIONAL WEATHER SERVICE WAKEFIELD VA
900 AM EDT FRI JUL 31 2015

Note: "fair" indicates few or no clouds below 12,000 feet with no
significant weather and/or obstructions to visibility. * = Denotes
station may not report precipitation (e.g., rain,snow,etc.),
thunder or fog.

VAZ042-051-052>054-056-311400-
NORTHERN VIRGINIA

CITY           SKY/WX    TMP DP  RH WIND       PRES   REMARKS
WASH NATIONAL  SUNNY     82  62  50 NW9       29.96R
DULLES         SUNNY     76  62  62 NW8       29.97S
FORT BELVOIR   SUNNY     78  64  60 NW6       29.96R
QUANTICO       MOSUNNY   79  62  56 W5        29.97R
FREDERICKSBRG* SUNNY     79  65  62 NW7       29.96S
STAFFORD*      SUNNY     76  62  61 NW8       30.01R
WARRENTON      SUNNY     79  67  66 NW5       29.98S
CULPEPER*      SUNNY     74  64  68 CALM      29.99S
MANASSAS*      SUNNY     79  64  61 CALM      29.97S
LEESBURG*      SUNNY     79  64  61 W7        29.98S
WINCHESTER     SUNNY     79  59  50 W10       29.99S
FRONT ROYAL*   FAIR      70  63  78 S3        30.00S
LURAY*         FAIR      73  64  73 CALM      30.02S
$$

VAZ048-049-060>072-079>083-311400-
CENTRAL AND SOUTH CENTRAL VIRGINIA

CITY           SKY/WX    TMP DP  RH WIND       PRES   REMARKS
RICHMOND       MOSUNNY   80  63  55 N9        29.96R
CHESTERFIELD*  FAIR      81  57  44 N7        29.98R
PETERSBURG*    MOSUNNY   80  69  67 N7        29.98R
HANOVER        SUNNY     77  65  66 N5        29.98R
TAPPAHANNOCK*  SUNNY     77  64  65 CALM      29.97R
QUINTON*       FAIR      76  65  68 N5        29.96R
CHARLOTTSVILLE SUNNY     76  65  68 CALM      30.01R
GORDONSVILLE*  FAIR      75  59  57 NW6       29.99S
ORANGE*        SUNNY     77  63  61 W3        30.00S
LOUISA*        SUNNY     79  64  61 NW5       29.98S
BUMPASS*       FAIR      76  66  71 CALM      29.98S
FARMVILLE*     SUNNY     78  61  55 N3        29.98S
CREWE*         FAIR     N/A N/A N/A N6        29.98S
FORT PICKETT*  FAIR      77  64  65 N6        29.99R
CHASE CITY*    FAIR      79  66  64 NW6       29.99S
CLARKSVILLE*   FAIR      73  64  73 N8        29.99R
SOUTH HILL*    SUNNY     76  66  69 N10       30.03R
LAWRENCEVILLE* FAIR      79  66  65 N5        29.97R
EMPORIA*       SUNNY     79  68  69 N6        29.97S
$$

VAZ088>098-311400-
SOUTHEAST VIRGINIA

CITY           SKY/WX    TMP DP  RH WIND       PRES   REMARKS
NORFOLK        MOSUNNY   81  72  74 N7        29.93R
VIRGINIA BEACH MOSUNNY   82  73  74 N6        29.92R
NORFOLK NAVAL  MOSUNNY   79  74  84 NW9       29.94R
WEST POINT*    SUNNY     79  67  66 N5        29.96S
SALUDA*        FAIR      77  70  77 NW7       29.94R
NEWPORT NEWS   SUNNY     80  72  76 N8        29.94R
LANGLEY AFB    SUNNY     80  73  80 N8        29.94R
FORT EUSTIS    SUNNY     78  73  85 N7        29.93R
WILLIAMSBURG*  SUNNY     75  75 100 N7        29.95S
HR EXEC AP*    FAIR      79  73  83 N3        29.95S
FRANKLIN*      SUNNY     77  72  82 N6        29.95S
WAKEFIELD      SUNNY     79  71  76 VRB3      29.95R
$$

VAZ020-022-025-037-045-311400-
WEST CENTRAL AND SOUTHWEST VIRGINIA

CITY           SKY/WX    TMP DP  RH WIND       PRES   REMARKS
STAUNTON*      SUNNY     71  61  70 CALM      30.07S
WAYNESBORO*    FAIR      69  61  76 CALM      30.06S
HOT SPRINGS VA SUNNY     64  56  74 NW5       30.15S
LYNCHBURG      SUNNY     76  61  59 N5        30.04R
DANVILLE       SUNNY     77  63  61 N6        30.01S
SOUTH BOSTON*  FAIR      75  63  66 NW5       30.00S
MARTINSVILLE   SUNNY     77  60  56 N5        30.06S
ROANOKE        SUNNY     73  60  63 CALM      30.08R
BLACKSBURG     SUNNY     69  62  77 CALM      30.14S
DUBLIN*          N/A     72  58  62 CALM      30.12S
MARION*        SUNNY     68  62  80 W3        30.16F
HILLSVILLE*    SUNNY     67  56  69 N6        30.12S
RICHLANDS*     FAIR      67  59  75 CALM      30.15S
WISE*          SUNNY     70  55  60 N9        30.16S
ABINGDON*      SUNNY     71  61  72 CALM      30.12S
$$

MDZ021>025-VAZ099-100-311400-
SOUTHERN MARYLAND AND THE DELMARVA PENINSULA

CITY           SKY/WX    TMP DP  RH WIND       PRES   REMARKS
PATUXENT RIVER SUNNY     78  66  66 NW10      29.94R
BAY BRIDGE APT   N/A     79  63  57 W3        29.94S
LEONARDTOWN    SUNNY     77  64  65 CALM      29.96S
DOVER          SUNNY     79  64  60 N9        29.91R
GEORGETOWN     SUNNY     79  64  60 N6        29.93R
EASTON         SUNNY     79  68  69 NW6       29.97R
CAMBRIDGE      SUNNY     79  61  53 N3        29.93S
SALISBURY      SUNNY     78  65  63 N8        29.93R
OCEAN CITY     SUNNY     81  64  56 N9        29.92R
WALLOPS ISLAND MOSUNNY   79  69  71 N5        29.93R
ACCOMACK*      SUNNY     79  72  78 N6        29.93S
$$

NCZ012>017-030>032-311400-
NORTH CENTRAL AND EASTERN NORTH CAROLINA

CITY           SKY/WX    TMP DP  RH WIND       PRES   REMARKS
ROANOKE RAPIDS FAIR      79  70  73 N9        29.96R
RALEIGH        MOSUNNY   78  63  59 VRB6      29.99R
ELIZABETH CITY CLOUDY    77  74  90 N14       29.91S
AHOSKIE*       SUNNY     78  70  76 N8        29.95R
EDENTON*         N/A     76  72  87 N5        29.92R
CURRITUCK*     CLOUDY    78  73  84 N6        29.92S
KILL DEVIL HLS PTSUNNY   80  75  85 CALM      29.89S
MANTEO         PTSUNNY   80  75  87 NE5       29.90S
CAPE HATTERAS  MOSUNNY   84  76  76 VRB5      29.89R
TARBORO*         N/A     81  70  69 N8        29.95S
GOLDSBORO      SUNNY     81  73  76 N13       29.92R
WASHINGTON     SUNNY     79  73  82 NE8       29.92R
GREENVILLE     MOSUNNY   81  73  78 NE8       29.95R
NEW BERN       PTSUNNY   80  75  84 N7        29.92R
WILMINGTON     PTSUNNY   80  75  84 N5        29.92R
$$

VAZ048-311400-
ELSEWHERE

CITY           SKY/WX    TMP DP  RH WIND       PRES   REMARKS
HARRISBURG PA  SUNNY     75  60  59 NW12      29.93S
BALTIMORE      MOSUNNY   79  62  56 NW7       29.94S
ANNAPOLIS      SUNNY     79  61  53 CALM      29.93S
ANDREWS AFB    SUNNY     79  62  57 NW8       29.95S
PHILADELPHIA   SUNNY     80  58  46 NW9       29.91S
HENDERSON NC   SUNNY     77  62  59 N5        29.99R
GREENSBORO     MOSUNNY   76  59  55 N9        30.03R
ROCKY MOUNT    SUNNY     81  72  74 N8        29.96R
$$

VAZ100-311400-
MARINE

STATION/POSITION TIME  TEMP    WIND        PRES    WAVE   SWELL
                       AIR SEA DIR/SP/G            HT/PER HT/PER
                 (UTC) (F)     (DEG/KT/KT) (MB)    (FT/S) (FT/S)
BRANDYWINE LGT   1200   78 76  350/ 14/ 16 1013.0R
CAPE MAY NJ      1200   79 78  340/  8/ 11 1012.3R
LEWES DE         1200   78 72  350/  5/  8 1012.7R
15NM E FENWICK I 1250   79 79  360/ 12/ 14 1012.9R   3/ 6   3/ 6
OCEAN-CITY-INLET 1200   77 72   10/  9/ 12 1011.9R
WACHAPREAGUE VA  1200   77 83  350/  4/  6 1013.2R
GOOSES REEF MD   1300   78 81  340/  8/ 12 1014.9R
COVE POINT MD    1200   76     350/ 12/ 14 1014.1R
SOLOMONS ISLAND  1200      82                N/A
BISHOPS HEAD MD  1200   77 82  360/  5/  9 1012.5R
PINEY POINT MD   1200          360/ 11/ 13   N/A
POTOMAC MD       1300   79 83  340/  4/  6 1012.9R   0
CAMBRIDGE MD     1200   76 83  360/  6/  9 1012.5R
LEWISETTA VA     1200   78 83  330/  7/ 10 1013.4R
RAPPAHANNOCK LGT 1200           30/ 18/ 21 1013.6R
STINGRAY PT      1300   80 83  360/ 10/ 12 1013.9R   1/ 2
YORK RVR RNG VA  1200   78     340/ 11/ 13 1012.7R
YORKTOWN VA      1200   78 83  350/ 10/ 12 1013.1R
JAMESTOWN VA     1300   77 85  340/  4/  8   N/A
DOMINION TERM VA 1200   77     350/  6/  7 1013.1R
KIPTOPEKE VA     1200      82   10/  7/  8   N/A
CHES BAY BRIDGE  1200   79 79   10/ 10/ 11 1012.4R
CAPE HENRY VA    1200   78      40/  5/  6   N/A
CHESAPEAKE LGHT  1200   78     360/  8/  9 1013.4R
WILLOUBY STN VA  1200   77     340/  7/  8 1014.1R
CAPE HENRY BUOY  1228      80                N/A     3/ 6
1ST LANDING BUOY 1300      80              1013.0R   2/ 4
CAPE CHARLES BUO 1226      80                N/A     3/ 8   2/ 8
OFFSHORE WE BUOY 1211      81                N/A     4/ 7   3/ 7
64NM E OF VA BCH 1250   78 81   20/ 10/ 12 1012.1S   4/ 9   3/ 9
DUCK PIER NC     1200   72 62   10/  7/  9 1011.7R
44100 DUCK FRF   1224      80                N/A     3/ 7
44056 DUCK FRF   1211      71                N/A     2/ 9
OREGON INLET NC  1200   82 83  320/  6/  8 1012.3R
HATTERAS NC      1200   82 82  360/  5/  5 1011.7R
DIAMOND SHLS NC  1250   82 85  360/ 10/ 12 1011.9R   4/ 9   3/ 9
CAPE LOOKOUT NC  1300   82     320/  6/  7 1012.2R
$$



USA.gov is the U.S. government's official web portal to all federal, state and local government web resources and services.